Total_Precipitation_Accumulation
0.44 0.52 0.50 0.54 0.53 0.44 0.33 0.31 0.38 0.36 0.39 0.36 0.23 0.20 0.11 0.10 0.18 0.26 0.30 0.69 0.83 0.55 0.17 0.17 0.07 0.00 0.00 0.00 0.12 0.13 0.02 0.08 0.18 0.27 0.14 0.07 0.02 0.00 0.00 0.01 0.01 0.00 0.01 0.00 0.00 0.00 0.00 0.00 0.00 0.00 0.00 0.00 0.00 0.00
0.56 0.53 0.45 0.45 0.47 0.37 0.30 0.29 0.35 0.33 0.34 0.31 0.23 0.18 0.12 0.11 0.19 0.24 0.31 0.66 0.76 0.90 0.29 0.13 0.10 0.02 0.00 0.01 0.02 0.12 0.03 0.00 0.06 0.12 0.11 0.09 0.05 0.01 0.00 0.00 0.01 0.01 0.01 0.00 0.00 0.00 0.00 0.00 0.00 0.00 0.00 0.00 0.00 0.00
0.52 0.42 0.40 0.46 0.41 0.35 0.28 0.28 0.34 0.31 0.29 0.26 0.19 0.16 0.14 0.13 0.20 0.21 0.31 0.65 1.18 0.67 0.78 0.23 0.17 0.08 0.02 0.02 0.02 0.03 0.03 0.02 0.01 0.03 0.11 0.07 0.08 0.04 0.02 0.00 0.00 0.01 0.01 0.01 0.01 0.00 0.00 0.00 0.00 0.00 0.00 0.00 0.00 0.00
0.31 0.30 0.34 0.44 0.37 0.31 0.24 0.27 0.34 0.31 0.25 0.20 0.18 0.16 0.16 0.14 0.18 0.22 0.35 0.74 1.55 0.97 1.01 0.50 0.12 0.10 0.11 0.05 0.04 0.04 0.03 0.02 0.05 0.06 0.06 0.04 0.03 0.03 0.04 0.03 0.02 0.01 0.02 0.02 0.00 0.00 0.00 0.00 0.00 0.00 0.00 0.00 0.00 0.00
0.15 0.18 0.27 0.28 0.20 0.16 0.18 0.24 0.34 0.32 0.26 0.16 0.18 0.15 0.18 0.15 0.25 0.30 0.48 0.74 1.18 1.11 0.78 0.63 0.34 0.08 0.15 0.15 0.15 0.08 0.04 0.05 0.07 0.09 0.07 0.03 0.00 0.01 0.00 0.01 0.01 0.01 0.00 0.00 0.00 0.00 0.00 0.00 0.00 0.00 0.00 0.00 0.00 0.00
0.15 0.15 0.16 0.18 0.13 0.12 0.16 0.27 0.33 0.31 0.21 0.16 0.17 0.19 0.20 0.29 0.47 0.61 0.81 0.65 0.69 0.86 0.97 0.65 0.42 0.15 0.22 0.31 0.25 0.38 0.15 0.17 0.11 0.08 0.03 0.01 0.00 0.00 0.00 0.00 0.00 0.00 0.00 0.00 0.00 0.00 0.00 0.00 0.00 0.00 0.00 0.00 0.00 0.00
0.21 0.17 0.15 0.16 0.15 0.20 0.27 0.34 0.35 0.26 0.28 0.21 0.22 0.29 0.29 0.58 0.65 0.96 0.75 0.61 0.46 0.70 0.89 0.71 0.44 0.17 0.27 0.33 0.22 0.51 0.34 0.36 0.24 0.12 0.06 0.04 0.02 0.01 0.00 0.00 0.00 0.00 0.00 0.00 0.00 0.00 0.00 0.00 0.00 0.00 0.00 0.00 0.00 0.00
0.31 0.21 0.18 0.22 0.23 0.26 0.31 0.31 0.29 0.29 0.35 0.30 0.35 0.36 0.44 0.92 0.83 0.70 0.51 0.77 0.60 0.56 0.53 0.57 0.35 0.28 0.24 0.38 0.24 0.20 0.29 0.46 0.31 0.23 0.12 0.07 0.07 0.04 0.02 0.00 0.00 0.00 0.00 0.00 0.00 0.00 0.00 0.00 0.00 0.00 0.00 0.00 0.00 0.01
0.14 0.11 0.16 0.23 0.22 0.23 0.21 0.24 0.25 0.30 0.35 0.43 0.45 0.58 1.04 1.39 1.02 0.62 0.61 1.09 0.69 0.65 0.46 0.21 0.18 0.27 0.20 0.35 0.41 0.29 0.18 0.26 0.45 0.34 0.25 0.17 0.16 0.15 0.05 0.00 0.00 0.00 0.00 0.00 0.00 0.00 0.00 0.00 0.00 0.00 0.00 0.00 0.01 0.02
0.12 0.15 0.21 0.21 0.15 0.14 0.15 0.18 0.28 0.36 0.54 0.62 0.82 1.11 1.41 1.13 0.71 0.61 0.98 1.11 0.81 0.43 0.23 0.12 0.09 0.13 0.20 0.28 0.49 0.46 0.52 0.24 0.17 0.19 0.26 0.27 0.19 0.12 0.08 0.09 0.08 0.05 0.02 0.01 0.01 0.00 0.01 0.01 0.01 0.00 0.00 0.00 0.00 0.00
0.17 0.20 0.17 0.15 0.10 0.08 0.10 0.14 0.29 0.47 0.59 0.73 0.91 0.83 0.84 0.90 0.90 0.77 0.72 0.59 0.42 0.16 0.07 0.07 0.09 0.07 0.12 0.30 0.39 0.37 0.47 0.55 0.29 0.10 0.11 0.11 0.07 0.04 0.04 0.05 0.08 0.11 0.09 0.07 0.05 0.05 0.03 0.01 0.01 0.01 0.01 0.02 0.02 0.03
0.27 0.22 0.15 0.15 0.13 0.13 0.18 0.32 0.38 0.36 0.48 0.57 0.50 0.58 0.94 0.77 0.58 0.37 0.27 0.25 0.13 0.03 0.02 0.06 0.07 0.08 0.13 0.20 0.38 0.50 0.41 0.35 0.28 0.08 0.08 0.05 0.02 0.02 0.02 0.04 0.05 0.03 0.02 0.02 0.02 0.03 0.05 0.06 0.06 0.05 0.07 0.11 0.16 0.19
0.38 0.23 0.17 0.16 0.15 0.24 0.28 0.25 0.31 0.49 0.59 0.43 0.29 0.59 0.52 0.42 0.24 0.13 0.06 0.05 0.04 0.01 0.03 0.06 0.06 0.07 0.10 0.11 0.24 0.35 0.40 0.31 0.17 0.08 0.04 0.02 0.02 0.03 0.02 0.01 0.00 0.00 0.01 0.01 0.02 0.04 0.06 0.08 0.12 0.14 0.15 0.13 0.09 0.07
0.36 0.26 0.20 0.21 0.19 0.23 0.29 0.42 0.63 0.70 0.51 0.34 0.53 0.43 0.33 0.14 0.05 0.02 0.00 0.00 0.02 0.02 0.04 0.04 0.04 0.04 0.09 0.11 0.07 0.09 0.12 0.11 0.10 0.08 0.03 0.02 0.04 0.03 0.01 0.00 0.01 0.01 0.02 0.03 0.05 0.07 0.10 0.11 0.12 0.10 0.07 0.04 0.02 0.01
0.33 0.32 0.31 0.44 0.38 0.25 0.28 0.44 0.56 0.51 0.44 0.59 0.43 0.22 0.11 0.05 0.05 0.03 0.01 0.02 0.04 0.03 0.07 0.10 0.11 0.03 0.03 0.11 0.09 0.05 0.03 0.03 0.02 0.01 0.01 0.03 0.05 0.03 0.01 0.01 0.02 0.04 0.05 0.05 0.05 0.04 0.04 0.03 0.02 0.03 0.02 0.01 0.00 0.00
0.25 0.28 0.44 0.45 0.32 0.29 0.37 0.39 0.49 0.35 0.32 0.27 0.31 0.16 0.10 0.05 0.07 0.05 0.05 0.07 0.07 0.07 0.16 0.20 0.21 0.10 0.10 0.05 0.04 0.04 0.03 0.04 0.03 0.02 0.02 0.03 0.03 0.04 0.05 0.06 0.08 0.07 0.07 0.09 0.12 0.10 0.08 0.05 0.03 0.01 0.00 0.00 0.00 0.00
0.17 0.25 0.32 0.31 0.36 0.38 0.30 0.31 0.33 0.31 0.34 0.26 0.32 0.24 0.17 0.13 0.15 0.15 0.11 0.11 0.07 0.06 0.12 0.09 0.07 0.07 0.05 0.03 0.05 0.07 0.09 0.07 0.06 0.05 0.06 0.07 0.06 0.08 0.12 0.12 0.09 0.09 0.11 0.11 0.09 0.08 0.04 0.02 0.00 0.00 0.00 0.00 0.00 0.00
0.23 0.19 0.23 0.25 0.23 0.22 0.24 0.24 0.17 0.21 0.28 0.32 0.32 0.44 0.27 0.22 0.19 0.16 0.11 0.04 0.01 0.01 0.01 0.01 0.02 0.03 0.07 0.08 0.12 0.17 0.20 0.19 0.17 0.16 0.16 0.17 0.19 0.22 0.19 0.08 0.10 0.09 0.08 0.08 0.05 0.03 0.01 0.00 0.00 0.00 0.00 0.00 0.00 0.00
0.35 0.22 0.23 0.19 0.16 0.19 0.20 0.16 0.06 0.09 0.27 0.35 0.40 0.40 0.27 0.31 0.35 0.33 0.20 0.10 0.01 0.00 0.01 0.02 0.04 0.08 0.14 0.20 0.27 0.26 0.27 0.26 0.27 0.30 0.33 0.32 0.29 0.22 0.17 0.10 0.08 0.06 0.05 0.04 0.03 0.02 0.02 0.01 0.01 0.00 0.00 0.00 0.00 0.00
0.50 0.42 0.34 0.27 0.22 0.25 0.12 0.09 0.01 0.05 0.22 0.28 0.33 0.26 0.20 0.34 0.29 0.21 0.13 0.09 0.05 0.05 0.09 0.14 0.24 0.30 0.32 0.37 0.39 0.37 0.34 0.29 0.20 0.16 0.26 0.35 0.37 0.24 0.21 0.12 0.09 0.06 0.03 0.03 0.02 0.02 0.01 0.02 0.02 0.02 0.02 0.02 0.02 0.01
0.22 0.28 0.30 0.29 0.27 0.19 0.14 0.12 0.12 0.13 0.19 0.23 0.28 0.10 0.22 0.13 0.06 0.04 0.02 0.00 0.02 0.13 0.23 0.36 0.38 0.37 0.39 0.44 0.42 0.34 0.29 0.24 0.20 0.12 0.13 0.19 0.26 0.14 0.14 0.14 0.10 0.07 0.06 0.06 0.05 0.07 0.07 0.07 0.07 0.04 0.03 0.02 0.02 0.02
0.02 0.03 0.05 0.07 0.07 0.05 0.13 0.19 0.13 0.14 0.13 0.23 0.19 0.11 0.14 0.12 0.07 0.05 0.01 0.03 0.16 0.35 0.36 0.34 0.34 0.31 0.27 0.31 0.36 0.31 0.33 0.19 0.14 0.13 0.13 0.09 0.09 0.09 0.12 0.15 0.09 0.10 0.11 0.12 0.10 0.09 0.08 0.06 0.04 0.03 0.02 0.02 0.02 0.02
0.00 0.00 0.00 0.00 0.00 0.00 0.06 0.05 0.07 0.16 0.13 0.15 0.12 0.09 0.12 0.12 0.11 0.03 0.07 0.14 0.25 0.37 0.38 0.28 0.25 0.23 0.22 0.25 0.18 0.18 0.26 0.18 0.17 0.21 0.20 0.16 0.16 0.16 0.14 0.15 0.14 0.11 0.10 0.11 0.08 0.06 0.05 0.04 0.02 0.01 0.01 0.00 0.00 0.00
0.00 0.00 0.00 0.00 0.00 0.00 0.00 0.02 0.04 0.08 0.08 0.09 0.07 0.11 0.12 0.07 0.02 0.02 0.09 0.16 0.25 0.19 0.16 0.22 0.22 0.22 0.19 0.15 0.15 0.18 0.26 0.16 0.16 0.19 0.20 0.12 0.10 0.13 0.10 0.10 0.08 0.07 0.07 0.06 0.03 0.02 0.01 0.01 0.00 0.00 0.00 0.00 0.00 0.00
0.00 0.00 0.00 0.00 0.00 0.00 0.00 0.01 0.01 0.02 0.06 0.05 0.05 0.09 0.07 0.03 0.03 0.05 0.08 0.17 0.13 0.13 0.14 0.16 0.13 0.14 0.15 0.18 0.18 0.19 0.17 0.11 0.09 0.10 0.15 0.10 0.09 0.08 0.06 0.05 0.04 0.02 0.01 0.00 0.00 0.00 0.00 0.00 0.00 0.00 0.00 0.00 0.00 0.01
0.01 0.01 0.02 0.03 0.02 0.01 0.02 0.02 0.02 0.02 0.02 0.03 0.04 0.04 0.02 0.03 0.02 0.07 0.10 0.15 0.12 0.13 0.14 0.15 0.14 0.10 0.11 0.11 0.11 0.11 0.12 0.11 0.06 0.05 0.07 0.04 0.04 0.04 0.03 0.02 0.01 0.01 0.00 0.00 0.00 0.00 0.00 0.00 0.00 0.00 0.00 0.00 0.01 0.02
0.02 0.02 0.01 0.03 0.04 0.02 0.02 0.02 0.01 0.01 0.03 0.05 0.06 0.05 0.05 0.03 0.05 0.11 0.11 0.10 0.09 0.13 0.12 0.11 0.08 0.08 0.10 0.09 0.08 0.07 0.04 0.02 0.02 0.02 0.01 0.00 0.00 0.00 0.00 0.00 0.01 0.01 0.01 0.00 0.00 0.01 0.01 0.01 0.00 0.01 0.00 0.01 0.01 0.01
0.03 0.02 0.03 0.02 0.01 0.01 0.01 0.02 0.02 0.05 0.05 0.05 0.06 0.03 0.03 0.04 0.10 0.15 0.14 0.15 0.09 0.07 0.05 0.04 0.03 0.03 0.03 0.04 0.04 0.03 0.01 0.00 0.00 0.00 0.00 0.01 0.00 0.00 0.00 0.01 0.01 0.00 0.00 0.01 0.00 0.01 0.01 0.02 0.02 0.02 0.01 0.01 0.01 0.01
0.02 0.02 0.01 0.00 0.01 0.01 0.03 0.06 0.06 0.06 0.05 0.05 0.04 0.04 0.05 0.08 0.16 0.17 0.17 0.11 0.08 0.05 0.03 0.04 0.06 0.03 0.02 0.00 0.00 0.00 0.00 0.00 0.00 0.00 0.00 0.01 0.01 0.01 0.00 0.01 0.01 0.01 0.01 0.00 0.00 0.00 0.02 0.02 0.02 0.01 0.01 0.01 0.01 0.02
0.01 0.01 0.01 0.01 0.02 0.05 0.08 0.04 0.05 0.04 0.02 0.01 0.01 0.03 0.04 0.12 0.18 0.14 0.09 0.07 0.05 0.05 0.05 0.04 0.03 0.02 0.02 0.01 0.01 0.00 0.00 0.00 0.00 0.00 0.00 0.00 0.01 0.01 0.01 0.02 0.01 0.01 0.01 0.01 0.01 0.00 0.00 0.00 0.00 0.00 0.01 0.01 0.01 0.02
0.01 0.01 0.01 0.02 0.05 0.07 0.05 0.03 0.05 0.02 0.01 0.01 0.01 0.01 0.04 0.08 0.09 0.06 0.05 0.07 0.04 0.04 0.03 0.01 0.00 0.00 0.00 0.00 0.00 0.00 0.01 0.01 0.00 0.01 0.01 0.01 0.01 0.01 0.01 0.01 0.01 0.01 0.01 0.01 0.01 0.01 0.01 0.01 0.01 0.01 0.01 0.01 0.01 0.01
0.01 0.01 0.01 0.02 0.06 0.05 0.07 0.11 0.10 0.07 0.04 0.02 0.03 0.02 0.04 0.03 0.04 0.04 0.04 0.05 0.02 0.01 0.01 0.01 0.01 0.01 0.01 0.01 0.01 0.01 0.00 0.01 0.00 0.00 0.01 0.01 0.01 0.01 0.00 0.01 0.01 0.01 0.02 0.01 0.01 0.01 0.01 0.01 0.01 0.01 0.01 0.01 0.01 0.00
0.01 0.00 0.00 0.01 0.04 0.05 0.04 0.06 0.03 0.03 0.03 0.03 0.04 0.04 0.03 0.02 0.02 0.05 0.05 0.02 0.01 0.01 0.01 0.01 0.01 0.02 0.02 0.00 0.00 0.00 0.00 0.00 0.00 0.01 0.01 0.00 0.01 0.00 0.00 0.01 0.01 0.01 0.01 0.01 0.01 0.01 0.01 0.01 0.01 0.01 0.01 0.01 0.00 0.00